User: anonymous   Login
Location: Unspecified
(0.0000°N, 0.0000°E)
Time: 09:17:16
(UTC+00:00)
Language:

Orbcomm A3 (FM07) - Orbit

View from above orbital plane
View from above orbital plane
View from above satellite
View from above satellite

Ground track
Ground track

The orbit data is extracted from the following two-line orbital elements,

1 25119U 97084H   17086.57227916 +.00000136 +00000-0 +90329-4 0  9994
2 25119 045.0159 255.5136 0003733 225.2543 134.8002 14.38522290008530
Epoch (UTC): 27 March 2017 13:44:04
Eccentricity: 0.0003733
inclination: 45.0159°
perigee height: 761 km
apogee height: 766 km
right ascension of ascending node: 255.5136°
argument of perigee: 225.2543°
revolutions per day: 14.38522290
mean anomaly at epoch: 134.8002°
orbit number at epoch: 853

The dashed part of the orbit path shows where the satellite is in the earth's shadow,  

DLR